Location: Poughquag
(41.6090°N, 73.6820°W)
Time: 11:30:16
(UTC-04:00)

A-11 Canister half - Pass Details

Date: 05 June 2020
Orbit: 1527 x 1682 km, 47.3° (Epoch: 06 July)

Event Time Altitude Azimuth Distance (km) Brightness Sun altitude
Rises 04:35:49 0° 193° (SSW) 4,689 11.1 -7.7°
Reaches altitude 10° 04:39:30 10° 182° (S) 3,696 10.6 -7.2°
Maximum altitude 04:46:45 26° 129° (SE) 2,630 10.4 -6.1°
Drops below altitude 10° 04:54:00 10° 78° (ENE) 3,701 12.3 -5.1°
Sets 04:57:39 0° 66° (ENE) 4,697 13.7 -4.5°
